Theta_e
298 298 298 298 298 298 298 297 297 298 299 300 301 301 302 303 303 303 303 303 303 303 303 303 304 304 303 303 303 304 303 303 303 303 304 305 305 305 305 305 306 308 309 310 311 311 311 309 308 310 310 310 312 311 311 312 311 311 311 312 315 316 315 315 314 313 313 314 314 315 315 315 315 314 315 315 314 314 313 314 315 314 312 314 314 314 319
298 298 298 298 298 298 298 297 297 297 299 300 301 302 302 303 303 303 303 303 303 303 303 303 303 304 304 304 304 305 305 304 303 304 304 305 305 305 306 306 307 308 308 310 311 311 313 312 309 310 311 311 312 312 311 312 311 310 312 314 315 315 315 315 314 313 313 314 314 314 314 314 315 314 315 315 315 315 315 315 317 315 313 314 313 315 322
298 298 298 298 298 298 298 297 297 297 299 300 301 302 302 303 304 304 303 303 303 303 304 303 303 304 305 305 305 306 306 306 305 305 305 305 305 305 306 306 307 307 308 310 311 311 312 313 312 311 311 311 312 312 312 312 311 311 313 315 314 314 315 315 314 313 314 314 314 314 313 314 315 315 315 315 315 315 315 315 315 314 315 314 313 317 325
298 298 298 298 298 298 298 297 296 297 298 300 301 302 302 303 303 303 303 303 303 304 304 304 304 304 304 305 305 306 306 307 307 307 307 307 307 306 307 307 307 308 309 311 312 312 312 312 313 311 311 312 311 311 312 312 311 313 315 316 315 314 315 315 314 314 313 313 314 314 314 313 313 314 314 315 315 316 317 316 314 314 315 314 314 320 325
298 298 298 298 298 298 297 296 296 298 299 300 301 302 302 302 302 302 302 302 303 304 305 305 305 304 305 305 306 306 306 307 307 307 307 308 308 307 307 308 308 309 311 312 312 313 313 312 312 311 311 311 311 311 312 311 313 315 315 315 315 314 315 316 315 315 314 313 314 314 314 314 313 314 315 315 315 316 318 317 316 316 316 314 316 323 323
297 298 298 298 298 297 297 296 296 297 298 300 302 302 302 302 302 302 302 302 303 304 304 305 305 305 305 305 305 306 307 307 308 308 308 308 308 308 309 309 309 310 311 313 313 313 313 313 312 312 311 311 311 311 311 311 313 314 313 314 315 315 314 315 315 315 315 314 315 314 314 314 314 314 315 316 316 316 318 318 318 318 317 315 317 324 323
297 297 297 297 297 297 297 296 296 296 297 300 302 301 302 302 301 302 302 302 302 302 303 305 305 306 306 306 306 307 307 308 308 308 308 309 309 309 309 310 311 311 312 313 314 314 314 314 314 312 312 311 311 311 311 312 312 312 312 314 315 315 314 315 315 315 315 314 314 315 315 314 314 314 315 316 317 317 318 318 318 319 319 318 320 322 323
296 296 296 296 296 296 296 296 296 296 297 300 301 301 301 301 301 301 301 301 302 303 304 305 306 307 307 307 307 307 308 308 308 308 309 309 309 310 310 311 311 312 313 314 314 314 314 315 316 315 313 312 311 311 311 312 312 312 313 315 315 314 314 315 315 314 315 315 316 316 315 314 314 314 315 316 317 318 317 317 319 320 319 321 321 319 323
295 295 295 295 295 294 294 296 296 295 297 300 300 300 300 300 300 301 301 302 303 304 305 306 306 307 307 307 307 307 308 308 308 309 310 310 310 310 311 311 312 313 313 314 314 313 314 315 317 317 316 314 312 312 312 311 311 312 314 315 315 314 314 314 315 315 315 315 316 316 316 316 316 315 315 316 316 318 318 317 319 319 318 322 320 317 324
295 295 295 295 294 293 293 295 296 295 297 299 299 300 300 299 300 301 301 302 303 304 305 306 307 308 307 307 307 307 308 309 309 309 310 311 311 311 311 311 312 313 314 314 315 314 315 316 317 318 318 317 314 312 311 312 312 312 313 314 313 314 313 314 315 314 315 316 317 318 318 318 318 317 317 318 317 317 319 318 320 321 320 321 318 317 327
295 295 295 294 294 292 293 295 296 295 297 298 298 299 299 299 299 300 301 301 302 304 305 305 306 307 307 307 308 308 309 309 310 310 311 311 311 311 311 311 312 313 314 314 314 314 315 316 316 317 318 317 316 314 312 312 312 311 313 313 314 314 314 315 315 314 316 320 321 320 319 318 319 322 323 323 320 317 318 319 320 322 321 320 318 321 330
293 294 294 293 293 292 292 294 296 296 296 297 298 298 299 299 299 300 300 301 302 303 304 304 305 306 306 307 308 308 309 309 310 311 311 311 311 311 312 312 312 313 314 314 314 315 316 317 316 317 317 317 317 316 313 312 312 311 313 313 314 315 315 315 315 313 317 322 321 320 320 320 322 325 325 324 322 319 318 319 320 321 322 320 318 322 328
293 293 293 292 292 292 292 293 295 295 296 296 297 298 299 299 299 300 300 300 301 302 303 303 305 306 307 307 307 308 309 310 311 312 312 312 313 313 313 312 312 314 314 315 316 316 317 317 317 318 317 317 317 316 314 313 312 312 313 314 315 316 315 315 314 314 317 320 320 320 321 321 322 325 324 323 322 320 318 319 319 320 321 320 318 321 326
293 293 293 293 292 292 292 294 295 296 296 296 297 298 298 299 299 299 299 300 301 301 302 303 305 306 306 307 307 308 310 311 312 312 313 313 314 315 315 315 314 315 316 317 317 317 316 316 316 317 317 317 318 317 314 314 313 313 314 314 314 315 315 314 314 314 316 318 318 319 319 320 323 323 323 323 321 320 319 318 319 320 321 320 317 320 325
293 293 293 293 293 293 293 294 295 295 296 296 296 298 298 298 299 299 299 300 300 301 303 304 304 305 306 306 308 309 309 310 311 312 313 313 314 315 315 315 315 315 316 317 317 316 316 316 316 316 316 316 317 317 315 314 314 314 314 314 314 315 315 314 314 314 314 315 317 317 316 318 321 321 322 324 323 321 319 318 318 319 319 319 317 321 327
293 293 293 293 293 293 294 295 295 295 295 295 296 297 298 298 299 299 299 299 299 301 303 304 303 304 305 306 308 309 309 309 310 312 312 313 314 315 315 315 315 315 316 318 318 316 315 316 317 316 315 316 317 317 317 315 314 314 314 314 315 315 314 314 314 314 314 314 316 316 316 319 322 322 322 323 324 325 323 319 318 320 321 322 319 319 327
292 292 293 293 293 294 294 294 295 295 295 295 296 297 298 299 299 299 299 299 299 300 302 303 303 305 306 306 307 308 308 309 310 311 312 313 314 315 314 314 315 315 316 318 318 317 314 316 317 316 317 318 317 316 317 316 315 315 315 314 315 315 315 314 314 314 314 315 315 316 318 321 323 323 323 322 323 326 325 320 320 323 327 328 326 324 327
293 292 292 293 293 294 294 295 295 295 295 296 296 297 298 299 299 299 299 299 299 300 302 304 304 304 306 306 306 307 308 309 310 310 311 313 314 314 314 315 315 315 315 317 316 316 315 315 316 316 317 318 317 316 316 316 315 315 315 315 315 315 315 314 314 314 314 315 315 315 319 322 323 322 323 322 322 323 323 321 321 324 327 328 328 329 329
293 292 292 293 293 294 294 295 295 295 295 295 296 297 298 298 299 299 299 299 299 300 303 305 304 304 305 306 306 307 308 309 309 310 311 312 313 313 315 315 315 315 316 316 316 315 315 316 317 317 317 318 318 317 316 315 315 315 315 315 315 315 314 314 314 314 314 315 314 315 318 321 322 322 322 322 321 321 322 322 323 325 327 328 328 328 328
293 292 292 293 293 294 294 295 295 295 295 295 296 296 298 299 299 299 299 299 299 299 303 306 306 305 306 306 307 308 308 309 310 311 311 311 312 313 315 315 315 315 316 316 316 316 315 316 317 317 316 317 318 318 317 315 316 316 315 315 315 316 315 314 315 315 314 314 314 316 318 321 322 321 321 322 321 320 321 323 324 325 325 326 327 328 327
293 293 293 293 293 294 294 295 295 295 295 296 295 296 297 299 299 299 300 300 299 299 303 306 306 306 306 306 306 307 307 308 309 310 310 311 312 313 314 314 315 314 315 315 316 316 315 316 318 318 317 317 318 318 317 316 316 317 318 316 316 317 315 315 317 318 317 316 316 318 319 322 323 321 321 322 322 321 322 324 324 324 322 322 324 327 327
293 293 293 293 293 293 294 294 295 295 295 295 295 296 297 298 299 300 301 301 301 301 303 305 306 306 306 307 307 307 307 307 308 309 309 310 311 312 314 314 314 314 315 315 315 316 315 316 318 317 316 317 317 317 317 317 316 317 317 317 317 318 317 317 318 319 319 318 318 319 320 322 322 322 321 321 321 322 323 323 323 323 322 321 322 324 325
292 292 292 293 293 293 293 294 295 295 295 295 295 296 297 298 300 301 301 302 303 303 304 306 307 308 309 308 307 306 307 306 307 307 308 309 311 312 314 314 313 313 315 315 315 315 315 315 316 316 316 317 317 316 317 317 317 318 317 316 317 318 318 317 318 319 319 319 319 320 320 321 321 320 321 321 321 321 322 322 322 322 322 323 323 323 324
292 292 292 293 293 293 294 294 294 295 295 295 295 296 296 299 301 301 302 303 304 304 305 307 308 310 310 308 308 307 307 306 306 307 307 308 310 312 313 313 312 313 315 315 315 316 316 315 315 316 317 317 317 317 316 316 317 318 318 317 317 318 318 318 318 319 319 318 319 320 320 320 320 319 320 320 320 320 321 321 321 321 322 323 324 323 322
292 292 292 293 293 293 294 294 294 295 295 295 296 296 297 299 301 302 302 303 303 304 305 307 308 309 309 308 309 309 308 307 306 306 307 307 309 311 312 311 311 313 314 315 316 317 315 314 314 316 316 317 317 317 316 316 317 317 317 317 316 318 318 318 318 319 319 318 319 320 320 320 320 319 320 320 319 320 320 320 320 321 321 323 324 323 323
292 292 292 292 292 293 293 294 295 295 295 295 296 296 297 299 302 302 303 304 304 305 305 307 308 309 309 308 309 309 309 308 308 308 308 308 309 310 310 311 312 314 315 316 317 316 314 313 314 315 316 316 316 316 316 317 318 318 317 317 317 317 317 317 316 318 319 318 318 319 319 319 319 319 319 319 319 319 319 319 320 320 321 322 323 323 324
292 292 292 292 292 293 293 294 294 294 295 296 297 297 298 301 302 302 303 304 305 305 306 307 308 308 308 308 308 308 309 309 310 310 310 311 311 311 311 312 313 314 315 315 315 315 314 314 314 314 315 316 316 316 317 317 318 318 317 317 317 318 318 317 316 317 318 318 317 318 318 318 318 318 318 318 319 319 319 319 320 320 321 321 322 322 323
292 292 293 292 292 293 293 293 293 294 296 297 297 298 301 302 303 303 304 304 304 305 305 305 305 306 307 308 309 308 308 308 308 310 310 311 312 312 312 313 314 314 314 314 313 313 313 313 313 314 315 315 316 317 317 317 317 317 317 316 317 317 318 317 317 317 317 317 318 318 318 318 318 317 317 317 318 318 319 319 319 319 320 321 321 321 322
293 293 293 292 292 293 293 293 293 294 296 297 298 301 303 304 304 304 304 304 303 304 304 304 305 307 309 309 309 308 308 308 308 309 309 310 311 312 312 313 314 313 312 312 312 311 312 313 314 315 315 315 315 316 316 316 316 316 316 316 316 316 316 316 317 317 317 317 317 318 318 317 317 316 316 316 317 317 318 317 317 318 318 319 320 321 321
293 293 293 293 292 292 292 292 293 294 295 296 299 302 304 305 305 305 305 303 302 303 304 304 305 307 308 308 308 308 308 307 307 308 309 309 310 310 310 310 311 310 311 311 310 310 311 311 313 315 315 313 313 314 315 315 316 315 315 315 316 315 315 315 316 316 316 316 316 316 316 316 316 316 316 316 316 316 316 316 315 316 316 318 319 320 320
293 292 292 292 291 291 291 292 293 294 295 296 299 302 305 307 306 305 304 301 299 301 303 304 304 306 308 309 308 308 307 307 308 308 309 309 310 310 309 309 310 309 309 310 310 309 309 309 310 313 314 312 311 312 314 315 316 316 315 315 315 315 315 315 315 315 315 315 315 315 315 315 315 315 315 314 314 315 315 315 315 315 315 316 317 318 319
291 290 290 291 290 290 292 293 294 295 295 297 299 301 304 304 302 301 300 300 300 302 303 304 305 307 309 309 309 307 307 308 309 309 309 309 309 309 309 309 309 308 307 308 309 308 308 308 309 311 312 310 310 312 313 314 315 315 314 314 314 314 314 314 314 314 314 314 315 315 315 314 314 314 314 313 313 314 314 314 314 314 315 315 316 317 317
291 290 290 290 290 291 293 294 294 295 296 297 299 301 303 303 302 302 302 302 303 304 304 305 306 308 309 309 309 308 308 308 310 310 310 308 307 308 309 309 309 308 307 307 308 308 308 309 309 310 310 309 309 311 313 314 314 314 314 314 314 314 314 314 313 313 313 313 314 314 314 313 312 312 312 312 312 312 312 313 314 314 314 315 315 316 316
291 290 290 290 291 293 294 295 296 296 297 298 301 304 305 305 304 304 304 304 304 305 305 305 306 308 309 310 310 309 308 308 309 310 308 307 306 308 309 309 308 307 307 307 308 308 308 309 310 310 310 309 309 311 312 313 312 313 314 314 313 313 313 313 312 312 312 312 312 312 312 311 311 311 311 311 311 311 312 313 313 313 314 314 314 314 315
290 290 290 292 294 295 296 296 296 296 298 302 304 306 306 305 305 305 304 304 305 306 307 307 307 309 310 311 310 309 308 309 309 308 307 307 307 307 309 308 307 306 307 307 308 308 308 308 309 309 308 309 310 311 311 312 312 312 313 313 313 313 313 312 312 312 311 311 311 311 311 310 310 310 310 310 310 311 312 312 312 312 313 313 313 313 314
290 290 292 294 295 296 297 298 298 299 302 305 306 306 306 306 305 305 304 304 305 306 308 309 309 310 310 310 309 308 308 309 309 308 308 308 307 306 307 308 307 307 307 307 307 306 307 308 309 308 306 308 310 310 311 312 311 311 312 313 313 313 313 312 312 311 311 311 311 310 310 310 310 310 310 310 310 311 311 311 311 311 311 312 312 312 313
290 292 295 297 298 299 301 303 303 303 305 306 306 305 305 305 305 305 305 305 305 305 306 308 308 310 311 310 309 308 307 308 309 309 307 307 306 306 306 306 306 307 308 306 305 306 308 308 308 308 307 308 309 310 311 311 311 311 312 312 312 312 312 311 311 311 311 311 311 310 310 310 310 310 310 310 310 310 310 310 310 310 310 310 311 311 311
294 296 298 300 302 303 304 305 305 305 305 304 304 305 306 306 306 307 306 306 306 306 306 307 309 310 311 310 309 308 306 307 310 309 307 306 306 306 306 306 305 306 306 305 305 307 308 308 309 310 311 310 310 310 311 311 311 312 312 311 311 311 311 311 311 311 311 311 310 310 310 310 310 310 310 310 310 310 310 310 310 310 309 309 309 309 310
297 299 300 301 303 304 304 304 305 304 304 304 304 306 307 308 307 308 308 308 307 308 308 308 310 311 311 310 310 309 306 307 309 309 307 306 306 306 306 306 305 306 306 306 306 307 308 308 308 310 311 311 311 311 311 311 311 311 311 311 311 311 310 311 311 311 310 310 310 309 309 309 309 309 310 309 309 309 309 309 309 309 309 308 308 308 309
298 299 300 301 302 302 303 303 304 304 304 306 306 307 307 308 308 308 309 309 308 308 309 310 310 310 309 309 310 309 307 306 308 309 308 306 305 306 307 306 305 305 306 305 305 306 308 308 308 309 309 309 310 311 311 310 310 310 310 310 310 310 310 310 310 310 309 309 308 308 308 308 308 309 309 309 309 309 309 309 309 309 308 308 308 308 308
297 297 298 299 300 300 301 302 303 304 305 306 306 306 307 307 308 308 308 308 307 308 309 309 309 310 310 309 309 309 308 307 306 308 308 306 305 305 306 305 305 306 305 304 305 307 307 307 307 309 309 309 310 311 311 310 310 310 309 309 309 309 309 310 310 309 309 308 308 308 308 308 308 308 308 308 309 309 308 308 308 308 308 308 308 308 308
294 295 296 297 298 299 300 302 303 305 305 306 306 306 306 307 307 307 307 307 307 308 308 308 309 310 310 309 309 309 308 306 306 307 307 305 305 305 306 305 305 305 305 306 307 308 307 306 307 309 310 310 310 310 311 310 310 309 309 308 308 308 308 309 309 309 308 308 308 308 307 307 307 307 307 308 308 308 308 308 308 308 308 307 307 307 307
294 296 298 298 298 300 302 303 304 305 305 305 305 306 306 306 307 307 307 306 307 308 308 308 309 309 309 308 308 308 307 306 306 307 306 305 305 305 305 305 305 305 306 307 308 307 306 307 307 308 310 310 310 310 311 311 310 309 308 308 308 307 307 307 307 307 307 308 308 307 307 307 307 307 307 308 308 308 308 308 307 307 307 307 307 307 307
297 298 299 300 301 302 303 304 305 305 305 305 305 306 307 307 307 307 307 307 307 308 308 308 308 309 308 308 308 308 307 306 306 306 305 305 305 305 305 305 306 306 307 308 308 307 307 308 308 308 309 309 310 310 311 311 310 309 308 308 307 307 307 307 306 307 308 308 307 307 307 307 306 307 307 307 307 307 307 307 307 307 307 307 307 307 307
298 298 299 301 301 302 303 304 305 305 306 306 306 306 306 307 307 307 307 308 308 308 308 308 308 309 309 308 308 307 307 306 306 305 305 305 305 305 306 306 306 307 307 307 307 307 308 309 309 309 308 309 310 311 311 310 309 308 308 308 307 307 306 306 306 307 308 308 307 307 307 306 307 307 307 307 307 307 307 307 307 307 306 307 306 306 307
297 298 300 301 302 303 304 304 304 305 306 306 306 307 307 307 308 308 308 308 308 308 308 308 308 309 309 308 308 307 307 306 306 306 306 305 305 305 306 306 306 306 306 306 306 307 308 309 309 309 309 309 310 311 311 310 309 308 308 307 307 307 306 306 306 307 308 307 307 306 306 306 306 306 306 306 307 307 307 307 307 307 306 306 306 306 306
297 298 300 301 302 302 303 303 305 306 307 307 307 307 307 308 308 308 308 307 308 308 308 308 308 308 308 308 308 307 307 307 306 306 306 305 304 305 305 305 305 305 306 305 306 307 309 309 309 309 309 310 310 310 310 309 308 307 307 307 307 306 306 306 306 306 307 307 306 306 306 306 306 306 306 306 307 307 307 307 307 307 307 306 306 306 306
297 298 300 301 302 303 303 303 304 305 306 307 307 307 307 307 308 308 307 307 307 308 308 308 308 308 308 308 307 307 308 307 306 305 305 305 304 304 304 304 304 305 306 306 307 308 309 310 310 310 310 310 310 310 310 309 308 307 307 307 306 306 306 306 306 306 307 307 306 306 306 306 306 306 306 306 306 307 307 307 307 307 306 306 306 306 306
296 296 298 300 302 303 303 304 304 305 306 306 306 306 306 307 307 307 307 307 307 308 308 308 308 307 307 307 307 307 307 307 305 305 305 304 303 303 303 304 304 306 306 307 308 309 309 310 311 311 310 310 310 310 309 308 307 307 307 306 306 306 306 306 306 306 306 306 306 306 306 306 306 306 306 306 306 306 307 307 307 307 306 306 306 305 305
295 296 297 299 301 302 303 304 304 304 306 306 306 306 306 306 307 307 307 306 307 307 307 307 307 306 306 307 307 306 307 307 306 306 305 304 304 303 304 304 305 306 307 308 309 309 309 310 311 311 310 309 309 309 309 308 307 307 307 306 306 306 306 306 306 306 306 306 306 306 306 306 306 306 306 306 306 306 306 307 307 307 306 306 305 305 305
295 296 297 298 299 301 302 303 303 304 305 306 306 306 306 306 306 306 305 306 306 307 306 307 306 306 306 306 306 306 306 307 306 306 306 305 305 305 304 304 306 308 308 308 309 309 309 310 310 311 310 309 309 309 308 307 306 306 307 306 306 306 306 306 306 306 306 306 306 306 306 306 305 305 306 305 305 306 306 306 306 306 306 306 305 305 306
295 295 296 296 298 299 301 302 303 303 304 305 305 305 305 305 305 305 305 305 306 306 306 306 306 306 306 306 306 306 306 306 305 305 306 306 306 305 306 306 307 308 309 309 309 310 310 310 310 311 310 309 308 308 307 306 306 306 306 306 306 306 305 305 306 306 306 306 306 306 306 305 305 305 305 305 305 305 306 306 306 306 306 305 305 305 306
Wind_Speed
20 21 23 23 24 26 27 28 29 30 33 35 33 26 17 12 12 12 9 4 1 3 3 4 5 5 8 10 12 13 11 7 6 7 6 6 5 4 5 7 8 8 7 8 8 8 6 10 10 7 10 10 9 17 23 22 20 14 9 11 9 4 3 7 8 8 11 14 16 16 18 16 14 14 13 12 13 12 10 7 6 6 7 7 6 6 3
20 21 22 23 24 25 27 28 28 28 29 31 29 22 16 16 16 11 8 4 2 4 4 5 4 5 8 10 9 7 7 8 7 8 8 7 5 5 6 7 7 7 8 10 9 8 6 5 7 8 9 9 12 18 22 19 17 13 9 9 8 4 5 8 8 9 10 11 12 14 16 14 11 12 13 15 16 16 12 9 5 4 8 10 8 4 2
20 21 22 23 24 25 27 28 28 26 26 28 25 19 15 14 11 7 6 4 2 5 6 6 6 8 9 11 10 7 6 7 8 9 10 9 8 7 7 8 9 9 10 11 10 8 6 4 4 6 9 9 11 17 21 17 16 15 13 11 10 6 7 9 8 9 10 11 11 11 12 12 10 13 17 18 19 18 14 8 5 5 8 12 9 2 3
20 21 21 22 24 25 27 29 29 25 25 26 22 16 13 10 6 6 8 6 4 7 10 7 5 8 9 8 9 8 7 7 7 8 8 7 8 8 9 10 10 10 10 9 9 8 7 7 7 6 10 8 8 17 20 19 20 17 11 12 12 5 7 10 11 10 10 10 11 12 12 12 12 16 20 19 18 17 12 7 7 7 6 9 8 3 5
19 21 21 22 24 25 27 30 29 25 25 24 19 13 9 6 4 5 8 7 5 6 7 4 3 6 7 5 6 8 9 8 6 4 5 6 7 7 8 9 8 8 8 7 8 8 7 9 6 5 9 7 9 18 20 18 18 11 6 12 10 4 6 12 13 12 12 12 13 16 16 16 16 17 18 19 19 16 10 6 9 8 6 8 8 6 8
18 21 22 22 24 25 28 30 28 26 24 21 17 13 9 6 5 6 6 4 5 6 8 9 9 10 8 3 4 8 10 9 6 3 5 7 6 4 5 7 8 10 9 7 7 8 6 6 4 5 9 8 9 13 15 16 15 8 6 13 9 3 6 11 12 12 11 13 14 16 17 16 16 15 16 18 19 16 12 10 11 10 7 7 6 7 8
17 19 21 22 24 26 28 28 28 27 23 18 15 13 10 8 6 6 7 7 9 13 15 16 14 11 7 3 3 6 9 9 7 4 4 5 4 4 5 7 7 9 10 8 7 6 6 5 3 4 8 9 10 9 10 15 16 11 10 10 7 4 6 9 12 11 10 11 13 14 16 16 16 18 18 18 17 16 16 14 13 13 11 8 6 5 6
17 18 21 23 24 26 27 27 27 26 22 18 15 13 13 12 9 9 11 11 13 15 15 13 10 7 4 2 3 5 8 9 9 7 6 5 4 4 7 9 10 10 10 10 8 8 8 7 6 5 4 7 10 9 8 12 16 12 9 8 7 6 4 6 9 9 8 8 5 7 11 13 16 18 18 16 14 15 17 15 12 12 11 10 10 8 2
17 19 21 23 25 27 27 25 25 25 22 18 16 14 16 17 15 14 13 10 9 11 10 9 8 4 2 3 5 7 8 10 12 9 7 7 6 6 7 9 10 9 10 11 10 11 11 11 11 10 7 2 7 10 8 10 14 13 9 7 7 5 3 5 7 6 8 7 4 5 6 6 10 15 16 16 15 13 13 13 11 12 10 9 10 9 3
18 19 21 23 24 27 26 24 24 23 21 20 18 17 19 22 19 16 11 8 8 10 8 8 7 5 5 8 9 10 10 11 10 7 4 6 8 8 9 10 8 8 9 9 8 10 13 14 13 13 14 11 5 13 14 13 13 12 9 6 7 6 4 5 6 6 7 7 3 4 3 5 7 9 11 14 16 14 12 12 13 12 8 6 7 6 7
20 20 21 23 24 26 25 22 22 22 20 20 19 19 21 22 20 16 11 7 8 10 7 6 6 7 11 15 14 12 13 13 11 6 3 5 8 9 10 10 8 7 9 11 11 12 15 12 9 13 16 12 4 11 15 16 14 12 9 5 6 8 6 5 5 6 5 6 5 1 4 6 4 4 7 7 11 16 14 11 11 10 7 7 7 4 11
20 22 23 23 23 24 24 22 20 20 19 18 19 18 17 19 18 15 9 6 8 9 7 7 10 12 15 17 14 13 14 15 14 11 9 9 10 12 13 11 7 6 9 11 9 8 10 6 5 11 13 9 5 8 9 14 16 13 11 8 7 6 5 4 4 5 3 7 7 2 6 4 3 7 10 13 10 12 14 11 11 12 11 11 9 7 12
19 20 22 22 22 22 22 20 19 19 18 17 18 17 16 17 16 14 11 7 6 8 8 11 16 16 16 17 16 15 17 17 16 13 11 11 11 13 14 14 11 10 9 4 3 2 3 4 2 6 6 4 3 7 8 10 16 15 12 10 8 6 4 3 3 4 3 5 4 3 3 0 5 6 6 9 11 8 10 11 12 12 10 10 11 8 10
18 19 20 19 19 19 19 18 18 19 19 18 17 16 16 15 14 14 13 6 6 12 13 10 12 15 17 18 17 15 15 15 14 12 11 11 12 10 7 8 9 7 5 5 5 3 1 4 1 4 5 1 2 2 6 8 13 15 12 9 7 5 4 4 4 4 4 4 4 3 2 2 2 2 2 4 6 6 6 5 7 10 8 9 11 9 10
18 19 19 17 16 16 17 17 17 18 19 18 16 16 16 14 12 13 12 9 8 11 11 7 10 15 17 17 16 13 10 10 11 12 13 12 12 10 7 6 6 6 7 6 4 3 2 1 1 1 4 4 2 3 5 5 5 7 8 9 8 7 5 4 4 4 4 3 4 4 3 3 3 2 1 2 5 5 5 3 3 7 8 9 12 10 12
18 19 19 17 16 15 15 16 16 17 19 19 18 17 15 11 11 12 12 10 7 7 11 15 17 17 15 14 15 12 7 7 9 9 8 10 12 11 11 10 8 5 5 4 3 2 2 2 1 0 1 2 4 4 5 5 4 3 5 8 9 9 7 4 3 4 4 4 4 4 3 1 2 3 2 3 5 5 2 4 5 3 4 7 11 10 11
18 19 18 17 16 16 15 15 16 17 18 18 19 20 15 11 11 13 10 9 7 11 17 18 17 14 11 9 10 10 8 9 9 6 6 11 13 14 15 13 9 4 5 6 3 3 1 2 2 1 1 2 2 6 5 5 6 6 7 8 7 7 6 5 5 5 4 5 4 2 1 1 4 4 5 5 6 6 1 6 4 3 9 9 6 4 3
17 18 18 17 16 16 16 16 16 16 17 17 18 19 15 11 11 10 10 10 8 9 12 12 13 14 9 7 9 10 9 10 8 6 8 10 10 15 16 11 7 5 5 5 1 3 1 1 1 1 2 4 2 5 6 6 7 7 9 8 6 6 6 5 7 6 4 5 5 2 2 2 4 3 4 6 5 3 4 4 1 7 11 11 10 13 13
17 18 18 16 16 15 16 16 17 16 17 17 17 17 15 11 9 9 11 11 7 10 16 16 14 15 11 9 13 13 11 10 8 7 7 6 12 22 17 6 6 6 6 3 1 2 1 2 2 2 1 1 0 1 2 5 5 6 9 9 6 6 6 5 6 6 4 5 5 3 3 3 4 3 4 6 3 3 2 2 5 6 11 11 9 15 20
17 19 18 17 16 16 16 17 17 17 17 17 17 18 15 11 9 10 11 10 10 18 22 16 10 14 14 13 15 13 11 11 9 7 6 6 16 22 11 4 7 8 5 5 5 3 4 4 2 3 2 2 2 2 1 4 4 2 4 7 5 3 4 5 4 4 4 5 5 3 2 1 2 1 3 4 2 3 2 6 6 10 13 11 7 9 11
16 18 19 18 17 17 17 18 17 16 17 16 17 19 16 11 10 10 11 12 13 16 16 11 12 19 20 19 20 18 15 14 11 10 11 13 15 14 5 3 8 7 4 5 5 3 3 3 1 2 3 2 2 3 2 2 4 4 4 0 2 1 3 4 2 2 2 3 2 1 2 2 2 2 3 5 5 5 1 4 6 12 13 11 9 9 7
15 16 17 18 18 17 17 17 17 16 16 16 16 18 17 13 10 10 13 16 16 19 22 20 19 21 18 14 15 14 13 15 14 12 13 14 15 12 6 6 9 8 7 7 5 3 4 3 1 0 2 3 2 3 5 2 3 2 3 0 1 2 2 1 3 4 3 2 1 1 4 7 7 6 7 8 7 7 7 7 7 10 12 10 9 8 6
16 16 17 17 18 18 17 17 17 16 16 16 15 17 18 15 12 12 16 17 18 23 27 22 18 19 14 7 7 10 10 9 10 10 11 11 13 12 7 9 11 10 8 9 7 5 5 5 3 1 1 3 4 3 3 2 1 1 1 2 3 4 2 2 4 4 5 5 4 3 5 8 8 6 6 7 6 6 8 8 8 10 10 7 6 5 1
17 16 17 17 17 18 18 17 16 15 15 16 15 15 17 14 12 15 18 15 14 18 18 13 14 17 12 6 8 12 12 10 8 7 7 8 8 8 6 10 13 10 9 11 11 7 6 5 4 3 2 1 2 3 3 1 1 2 2 4 4 5 4 1 3 2 3 3 4 4 4 6 7 6 5 6 5 5 6 6 7 8 8 6 6 4 4
17 16 17 18 17 17 18 17 16 14 14 15 13 14 15 12 9 13 16 14 13 12 9 9 14 13 9 9 8 9 10 11 11 9 6 4 6 8 9 12 12 9 11 13 11 8 7 4 3 4 3 1 1 1 2 1 0 2 2 2 1 5 6 5 5 4 2 3 4 4 5 7 8 8 8 7 7 7 7 5 4 5 7 8 7 4 4
17 17 18 17 17 17 17 17 16 14 14 13 12 13 15 11 7 10 13 14 15 11 7 8 14 15 15 14 11 7 7 8 8 10 11 9 6 8 11 12 11 11 13 12 9 7 7 4 3 3 3 3 2 1 1 2 3 2 2 1 1 5 7 3 2 2 3 3 6 6 4 7 8 10 10 9 8 8 7 5 4 4 6 8 6 5 4
17 17 18 17 17 17 17 16 15 14 13 12 10 12 14 9 5 9 12 11 11 8 5 7 16 21 20 16 10 7 6 6 6 8 10 10 9 9 9 10 11 12 12 10 7 6 4 4 4 4 4 5 4 1 3 3 1 1 3 5 5 5 5 2 4 2 3 2 2 4 1 4 6 9 9 8 6 6 6 6 7 7 6 7 6 4 5
17 17 18 18 17 17 17 17 15 14 13 11 9 10 11 7 3 8 10 8 7 7 8 14 23 24 19 12 8 5 3 2 4 7 8 9 9 9 9 10 11 11 11 9 7 5 3 4 4 5 4 5 4 3 3 6 4 3 5 7 7 6 5 4 3 3 5 5 2 1 3 6 7 8 7 6 6 5 5 6 8 7 6 6 5 4 4
18 18 18 18 17 16 16 16 14 13 12 10 9 9 8 3 3 10 10 6 6 9 13 18 19 16 12 11 9 6 2 2 4 5 6 7 7 7 9 9 8 9 10 8 7 5 4 5 5 4 4 3 4 4 3 3 3 5 6 7 7 8 9 9 6 5 6 7 6 6 7 8 8 7 6 6 7 7 7 8 8 7 6 6 4 4 3
18 18 18 18 16 15 15 14 12 12 11 8 9 10 6 2 6 9 8 5 7 9 11 10 9 11 14 13 9 6 3 2 3 5 6 6 5 6 6 5 5 8 9 6 5 5 4 5 5 3 3 5 5 3 3 4 3 5 7 7 8 9 10 10 8 7 7 7 7 8 8 8 7 7 7 7 7 8 7 8 7 6 5 5 3 4 3
18 19 18 17 15 13 13 12 10 10 11 7 6 7 5 2 3 8 11 12 12 12 10 9 11 14 15 9 5 4 5 3 2 3 4 5 5 4 6 6 5 7 8 6 5 5 4 5 5 3 3 6 6 4 3 4 4 4 6 7 8 9 9 9 9 9 8 7 6 7 8 7 5 6 7 7 7 7 7 7 7 4 3 4 4 4 4
18 18 17 15 13 11 11 10 10 11 10 8 6 7 7 5 7 12 15 16 13 9 7 8 9 9 7 3 3 3 5 4 4 5 6 5 4 2 4 5 4 5 6 7 4 4 4 3 4 4 5 6 6 4 4 6 4 5 7 7 8 9 9 9 8 7 7 6 4 5 7 7 6 6 6 5 6 6 6 6 5 4 3 3 3 4 4
17 17 15 13 12 11 10 9 10 10 10 8 7 6 6 6 8 11 12 11 8 7 6 6 5 4 4 6 4 3 5 7 8 8 5 1 3 2 2 2 3 3 5 5 3 2 1 3 4 2 3 4 4 2 5 6 6 8 9 8 8 9 8 7 7 7 7 7 6 5 6 5 5 5 5 4 5 6 5 4 4 4 4 4 5 5 5
15 14 13 12 11 10 9 8 9 9 9 7 4 4 5 6 8 12 12 8 6 6 6 6 5 4 7 9 5 2 3 7 7 4 2 4 4 5 4 0 2 3 4 5 3 1 2 2 4 1 2 2 3 3 4 5 8 10 9 7 7 7 6 6 8 8 7 7 7 7 6 5 4 5 5 5 5 5 4 4 4 4 4 5 6 6 5
13 12 11 11 10 8 6 6 7 7 6 4 4 7 9 10 12 16 15 10 6 5 6 7 6 4 7 7 2 2 3 6 4 2 3 3 3 4 4 1 2 4 4 4 4 1 2 3 4 2 2 3 4 4 4 5 7 7 7 7 5 4 5 6 6 7 6 6 7 8 8 8 8 7 6 6 6 5 5 5 5 4 5 6 5 5 5
11 10 10 8 5 3 2 4 5 5 5 5 8 11 12 14 17 18 16 11 7 6 5 6 6 5 6 5 3 4 5 6 3 1 1 2 1 3 5 4 1 3 3 3 2 4 4 2 3 3 5 4 4 5 5 5 4 4 5 6 4 4 5 5 5 6 6 5 4 5 6 7 8 7 6 6 6 6 6 6 5 5 5 6 6 6 6
9 8 6 4 2 2 4 4 3 5 6 9 11 13 14 16 15 12 9 8 8 8 8 7 5 7 9 6 4 5 7 6 3 1 3 3 3 2 4 4 2 1 1 1 3 4 2 2 1 3 5 5 5 6 5 4 5 6 6 5 3 3 4 4 3 3 3 2 2 4 5 5 6 6 6 6 5 5 6 6 5 4 4 5 5 5 5
5 5 4 4 3 5 5 3 3 7 8 9 10 11 11 9 7 5 6 6 6 8 9 6 6 10 12 7 5 6 7 7 6 3 3 3 3 2 2 2 2 1 2 1 3 2 4 3 1 4 5 5 6 7 5 5 7 8 6 4 2 2 3 5 4 3 3 3 5 9 10 7 6 7 6 5 5 5 5 4 4 4 4 4 4 5 5
5 6 6 6 5 4 4 5 5 7 8 8 7 6 5 5 4 4 6 7 6 8 9 8 9 12 10 5 3 3 4 6 8 4 3 3 3 3 3 2 1 2 3 1 3 1 4 2 2 4 5 5 6 7 5 4 6 6 4 3 3 2 2 5 6 5 6 7 7 9 9 8 7 7 6 5 5 5 4 4 3 3 3 3 4 5 6
7 7 6 5 5 4 5 7 7 5 5 6 5 4 5 5 5 5 5 5 5 6 7 7 9 9 6 5 4 1 2 4 7 5 3 3 3 3 4 2 2 2 3 3 3 2 4 2 2 4 5 5 5 6 5 5 6 6 5 4 3 2 2 3 4 4 4 5 5 6 7 7 6 6 5 5 5 5 4 4 4 3 3 4 5 6 6
8 6 4 6 8 8 8 8 6 4 4 5 4 3 4 5 5 6 5 4 4 5 7 7 7 5 3 5 6 2 3 4 5 5 3 2 2 2 3 1 1 3 2 4 2 4 3 3 4 3 5 6 5 4 5 5 6 6 5 4 3 2 2 2 2 3 3 3 4 5 5 5 5 5 5 5 5 5 4 5 5 4 4 4 5 5 6
5 5 6 8 9 7 5 4 4 3 4 4 3 3 4 4 5 6 6 4 4 3 6 6 5 3 1 4 6 4 3 4 3 5 4 1 2 3 2 1 1 2 2 2 2 3 1 3 4 4 6 7 5 3 5 5 6 6 6 5 3 2 2 1 1 1 1 1 2 4 5 4 5 5 4 4 5 5 5 5 5 5 5 4 4 5 5
5 7 9 9 7 4 2 3 4 4 2 2 2 3 3 4 4 5 4 5 6 4 2 3 4 4 2 3 4 3 1 2 3 5 3 1 1 1 2 1 1 1 1 2 3 0 3 3 3 5 7 6 4 2 4 6 6 6 7 5 3 2 2 1 0 0 0 1 2 3 4 5 4 4 4 4 5 6 6 5 4 4 4 5 5 6 7
6 5 5 6 5 3 2 2 4 4 3 3 3 4 4 5 6 5 4 4 5 4 2 1 3 3 2 2 3 3 2 2 3 3 2 0 1 2 1 0 0 0 2 4 2 2 3 3 6 8 9 6 3 4 5 6 7 6 6 5 3 3 2 2 1 1 2 3 3 3 4 4 4 4 4 5 5 6 6 5 4 5 6 6 6 7 8
6 3 3 3 3 3 3 2 2 4 4 3 3 4 5 5 5 4 3 4 5 2 1 2 4 3 2 2 3 3 3 3 3 2 1 1 1 0 1 2 1 2 3 2 1 2 2 3 6 9 10 6 3 5 6 6 6 6 5 4 3 3 2 2 2 2 3 4 4 3 4 4 4 5 5 5 5 5 6 5 5 6 6 6 7 8 9
5 4 3 3 3 4 4 2 2 3 4 5 6 7 6 4 3 2 3 7 7 4 1 3 5 4 3 3 3 3 4 4 2 0 1 1 0 1 2 2 2 2 2 2 2 3 4 5 6 8 9 5 4 5 6 6 5 5 4 3 3 3 2 2 2 3 4 4 4 4 4 4 4 5 5 5 5 5 6 6 6 6 6 7 8 9 10
4 4 4 4 3 4 5 4 4 5 6 7 8 8 6 5 5 3 2 5 6 4 3 5 6 6 5 5 4 4 5 4 1 1 1 1 1 1 0 2 2 0 1 1 1 2 4 6 8 8 7 4 3 5 6 6 5 4 4 4 4 3 3 2 2 3 4 4 4 4 4 4 5 5 5 5 6 7 7 8 7 7 7 8 9 9 10
5 3 3 3 3 3 5 5 7 9 9 9 10 9 6 5 5 3 2 3 5 5 4 5 5 5 5 5 4 5 4 3 2 1 1 1 1 1 1 2 1 2 2 2 3 4 5 6 8 8 5 2 3 4 5 5 5 4 4 4 4 4 3 2 3 4 5 4 4 4 4 4 5 6 6 6 7 8 8 9 9 8 8 9 9 9 10
5 4 4 4 5 6 6 6 6 7 9 10 10 11 9 7 6 3 3 4 5 4 4 5 4 4 4 4 4 4 4 2 2 2 2 1 1 2 2 1 1 2 1 1 4 6 6 6 5 4 3 2 3 4 4 5 5 5 4 4 4 4 3 3 4 5 4 4 4 5 5 5 6 6 6 7 7 7 7 8 9 9 9 9 9 9 9
6 5 5 6 6 7 7 6 5 5 7 7 8 11 11 7 2 1 3 4 5 5 5 5 5 4 4 3 3 4 4 3 3 3 3 3 3 3 3 3 2 0 3 4 5 6 7 6 4 3 3 3 3 4 5 6 5 4 4 5 4 4 4 5 5 5 4 5 6 6 6 6 6 7 6 7 7 7 7 8 9 10 10 8 7 7 8
6 6 7 9 10 9 8 6 5 4 4 4 6 7 7 3 4 6 6 5 6 6 5 5 5 4 3 4 4 3 1 1 2 4 4 3 3 3 4 3 2 2 5 6 6 5 6 7 6 4 4 4 4 4 5 6 5 5 5 5 4 5 5 6 6 6 5 6 6 6 6 7 8 8 7 8 8 7 7 8 9 9 10 8 7 7 9
5 5 7 10 12 12 11 9 8 6 5 4 5 6 5 3 3 5 6 6 5 5 5 4 4 4 3 3 3 2 1 0 2 4 4 2 1 1 1 1 3 4 4 5 5 5 6 6 6 5 4 4 4 5 5 5 4 5 5 5 5 6 6 6 7 6 6 6 7 6 6 7 8 8 8 9 9 8 8 9 9 9 8 8 8 10 11
Wind_Direction
344 344 343 343 343 342 342 341 343 350 352 350 347 343 335 324 316 321 329 327 236 211 245 277 261 252 269 269 265 275 294 307 305 303 292 287 299 291 278 275 272 279 282 282 301 313 266 206 191 178 175 187 197 189 187 184 181 189 213 204 180 139 159 172 175 191 197 194 194 206 217 210 199 210 216 210 208 212 224 224 209 224 223 211 225 222 205
344 344 344 343 343 343 343 342 344 351 355 351 344 339 332 319 312 318 343 3 180 215 282 308 300 297 297 297 298 301 310 311 304 305 307 313 323 298 280 276 270 283 293 290 302 313 289 231 192 175 165 187 200 185 182 184 180 189 207 183 157 150 175 176 178 182 187 191 189 198 214 221 213 205 214 229 220 203 215 240 221 213 229 223 225 219 164
344 343 344 343 345 344 343 345 347 349 354 353 344 336 330 323 315 318 341 351 255 251 288 308 312 321 324 320 323 324 308 311 320 317 310 310 306 289 285 294 291 289 292 291 294 292 277 259 237 188 165 184 195 177 178 185 184 197 207 170 153 184 185 170 185 187 182 192 193 191 202 211 212 201 204 224 231 212 204 220 216 205 226 232 233 201 115
346 344 345 344 344 343 342 345 348 350 354 352 345 336 331 328 334 345 344 336 295 275 286 295 303 319 328 322 321 330 326 322 320 306 296 290 287 282 283 292 293 283 281 291 298 286 248 242 261 214 176 171 173 173 181 190 185 189 199 168 157 189 196 187 202 197 187 201 196 183 192 206 207 201 201 214 232 229 210 193 208 208 213 241 243 176 140
346 344 345 344 342 341 342 344 349 354 356 353 349 344 336 331 335 346 341 327 313 306 302 306 299 295 308 316 315 321 322 320 316 291 276 286 291 285 272 269 271 278 290 303 305 297 257 239 251 202 168 151 162 172 179 192 186 166 168 178 172 188 199 204 220 212 194 200 196 182 188 206 208 201 205 210 216 227 229 208 210 204 197 235 233 162 136
344 343 343 341 338 338 340 343 349 353 356 359 2 360 357 352 332 330 339 320 312 326 317 310 305 292 285 282 293 302 305 311 318 288 271 281 278 270 270 261 254 269 294 309 303 306 292 249 224 181 172 158 161 170 175 186 180 153 178 188 177 188 204 207 226 230 208 195 196 188 185 200 211 210 218 216 207 215 233 227 216 213 214 230 218 164 156
341 341 338 335 334 336 339 343 349 354 358 7 12 7 1 349 321 316 334 314 291 295 295 296 303 301 289 265 264 291 298 305 312 299 288 293 266 235 264 284 285 288 299 304 294 299 299 266 227 203 194 168 153 167 185 179 168 171 190 182 168 199 213 207 214 227 227 211 206 195 184 191 203 210 220 216 202 209 226 229 224 223 227 232 229 204 191
333 334 331 331 335 339 341 344 351 357 4 12 13 6 358 349 335 322 320 306 289 289 291 294 300 304 308 297 284 298 300 308 318 305 280 290 287 241 249 279 299 303 303 299 278 261 265 270 279 279 219 170 159 176 197 172 162 178 188 166 172 197 205 213 212 217 223 228 243 215 196 197 202 207 217 217 209 213 218 223 231 229 226 230 237 236 226
324 327 328 330 336 341 342 345 353 2 10 10 1 354 350 345 338 328 317 304 299 303 304 304 302 307 334 319 313 316 312 317 323 311 275 264 266 261 275 296 304 297 296 294 269 254 260 265 275 292 303 250 173 179 195 172 166 183 184 165 180 198 221 217 208 220 214 205 250 255 233 247 234 216 212 213 220 225 214 210 224 232 223 219 234 234 171
315 319 320 325 332 336 338 344 354 4 11 7 353 344 345 345 342 337 322 298 300 310 311 311 314 330 339 327 322 321 319 322 324 315 283 260 254 267 293 305 306 305 300 281 250 251 263 266 276 293 302 301 226 186 184 171 172 184 176 172 189 191 237 232 190 209 213 183 205 264 258 283 264 229 215 214 218 223 220 210 211 223 226 213 235 229 140
313 313 311 316 325 330 333 342 355 3 7 3 349 339 342 345 343 339 327 301 305 319 325 328 330 329 325 326 329 325 323 328 327 320 311 291 282 290 301 296 289 289 279 261 249 247 247 254 289 297 292 300 271 201 183 162 170 190 178 182 204 188 216 246 184 194 196 130 90 55 206 219 255 323 326 290 233 218 220 220 210 210 212 209 223 181 128
316 316 310 310 316 323 329 338 350 359 3 357 345 339 342 344 343 341 333 313 312 322 328 320 313 315 321 327 332 327 323 323 318 308 295 284 278 275 273 273 276 269 259 260 270 261 230 219 312 300 290 314 317 248 213 159 163 190 190 186 193 183 207 240 188 194 171 100 89 180 209 215 339 347 341 335 302 233 217 225 226 213 202 205 214 174 136
328 328 322 315 311 315 325 335 346 354 358 355 345 341 343 345 347 345 332 310 301 317 322 311 309 318 329 332 330 324 320 318 314 305 287 269 265 258 240 223 226 248 261 283 348 341 174 157 275 270 259 298 290 240 231 174 165 184 198 192 182 172 186 216 201 187 148 119 137 195 195 275 344 338 333 333 320 266 219 220 226 220 210 206 213 189 142
336 337 336 331 324 321 326 336 344 348 352 354 345 340 344 348 348 342 332 318 305 309 307 303 314 327 333 331 327 325 325 326 325 323 314 292 283 282 252 218 228 260 304 8 27 15 108 133 177 226 191 138 22 200 210 191 173 179 186 184 184 185 185 204 211 187 164 180 195 179 161 204 260 308 288 284 288 265 244 237 222 221 216 203 211 199 144
337 335 338 341 339 335 334 337 342 344 348 350 344 340 347 348 344 340 331 317 306 304 305 321 336 332 327 324 326 328 331 337 334 330 332 321 304 310 337 344 347 12 26 28 31 351 306 126 114 197 163 131 106 167 177 177 179 182 176 171 181 200 211 223 217 192 181 202 211 202 206 207 181 171 192 291 298 276 265 283 255 227 221 221 225 200 142
336 334 337 340 340 342 341 340 343 344 344 347 343 343 353 354 342 338 326 312 304 295 305 319 324 320 315 317 326 333 337 338 335 329 331 329 323 334 355 356 352 20 43 28 10 338 326 4 24 255 139 132 156 155 146 159 175 174 173 179 187 199 212 227 224 206 200 212 218 209 218 314 48 70 51 19 356 348 313 231 228 237 277 270 248 216 157
336 332 335 339 339 342 342 341 345 342 342 346 341 340 353 357 338 333 325 310 300 284 290 306 317 318 318 320 329 340 340 329 331 335 322 321 331 346 358 358 350 3 64 62 355 307 32 46 342 322 332 311 164 139 139 168 172 163 176 192 196 203 216 216 210 211 208 219 228 176 139 20 55 46 349 355 25 26 48 196 198 359 357 351 338 321 149
336 332 334 338 339 340 340 339 341 338 338 344 340 337 348 350 335 332 323 314 307 283 290 314 319 307 305 309 308 314 319 318 325 333 316 313 335 344 344 354 7 0 38 84 193 260 155 103 318 308 268 269 193 134 140 161 170 173 176 178 182 198 213 214 213 216 201 209 223 147 101 17 57 83 332 355 42 98 164 172 250 339 352 11 40 49 70
333 331 334 338 338 339 338 337 338 336 337 343 338 335 343 347 337 331 320 314 297 280 298 316 308 288 285 290 290 292 297 292 291 311 319 327 340 335 332 6 48 359 339 3 254 255 70 62 345 325 273 254 47 100 147 145 155 174 174 174 182 192 197 201 220 234 218 210 227 177 116 6 5 69 48 31 55 168 181 322 324 350 7 15 55 81 89
331 330 333 335 335 337 336 335 335 335 336 340 337 332 339 346 339 331 324 316 297 292 303 316 306 289 289 284 280 288 300 299 302 326 331 325 332 334 337 27 16 354 343 355 359 7 41 51 358 305 316 34 8 291 196 108 86 73 171 181 176 167 197 197 199 238 234 216 228 215 145 14 309 146 67 41 83 178 254 306 347 35 32 15 28 68 90
329 329 331 333 332 333 332 331 332 332 333 338 337 331 335 342 335 329 328 319 297 287 297 311 302 295 293 287 283 280 276 279 290 315 318 313 322 334 348 348 342 354 13 357 357 12 26 53 64 295 308 358 339 309 338 100 119 56 15 190 157 102 241 210 133 13 275 222 225 237 127 87 44 82 79 76 108 124 70 326 17 46 40 21 13 15 26
325 324 324 326 327 328 329 328 330 330 329 335 338 329 328 335 336 328 323 313 291 280 290 302 305 301 296 293 296 292 278 274 275 285 299 305 312 320 330 347 348 358 6 359 6 11 359 23 74 311 324 346 357 7 1 3 149 94 14 352 186 348 341 86 70 53 56 97 110 126 123 107 85 80 91 98 108 98 63 37 40 57 56 37 14 8 16
320 319 319 322 325 327 327 325 327 328 327 332 337 327 323 333 345 336 322 314 301 297 300 305 308 309 310 320 336 337 331 310 287 273 271 282 301 316 350 18 357 343 355 10 7 344 342 2 22 53 35 340 335 5 24 30 57 351 1 102 40 346 350 91 88 102 106 104 110 112 109 108 104 99 95 93 91 78 67 60 50 56 65 55 27 29 64
318 318 319 322 323 324 325 324 324 326 325 325 328 324 323 335 347 335 324 319 314 313 314 307 294 299 317 3 3 348 347 342 328 304 266 256 279 302 346 8 352 334 339 353 348 323 313 335 4 29 52 9 329 355 2 10 23 336 354 62 27 317 284 16 55 104 130 109 105 114 116 109 104 97 86 82 80 64 59 64 50 50 68 74 59 81 175
317 318 318 320 321 321 324 324 320 319 319 319 321 323 325 334 341 325 318 317 315 313 314 306 295 299 332 356 343 340 344 341 343 350 339 291 265 271 299 332 338 317 304 314 323 325 324 336 15 23 19 357 314 356 339 307 2 16 18 68 337 315 331 7 19 8 32 73 58 60 91 85 70 66 62 58 59 50 41 47 51 61 84 80 60 73 152
315 315 315 317 319 319 321 321 318 315 313 315 319 321 323 334 346 321 312 318 315 295 261 281 300 310 325 329 323 319 314 308 317 334 337 332 308 286 296 313 321 314 303 300 304 316 330 0 23 5 8 9 330 302 90 32 10 20 43 72 356 347 2 42 105 5 18 47 17 13 70 88 63 54 49 40 43 42 31 36 52 60 82 83 62 46 80
312 312 313 314 315 317 318 317 315 311 306 310 321 322 322 337 346 310 305 321 325 303 262 287 303 307 312 314 310 302 287 267 268 288 300 304 297 287 293 304 314 323 326 326 322 313 333 35 14 333 12 36 6 335 140 127 93 75 62 49 47 31 22 87 144 100 67 104 327 329 74 105 70 56 44 30 33 36 25 31 40 41 61 83 84 68 73
311 310 312 312 312 314 317 316 312 305 303 311 320 321 329 352 338 289 293 314 323 299 286 295 298 301 310 318 311 298 292 287 278 275 283 290 278 266 273 286 301 320 331 334 331 327 15 45 5 332 12 41 7 345 143 154 147 87 49 41 50 60 51 52 91 97 87 101 118 72 82 86 78 70 55 30 23 32 42 42 34 29 36 51 74 101 108
309 308 310 312 312 313 314 313 309 303 303 314 323 327 345 17 263 273 287 312 318 299 296 299 295 293 301 311 309 304 306 315 299 292 300 303 286 273 278 278 288 317 324 320 327 340 17 37 22 8 17 2 317 333 39 103 99 61 49 48 59 65 60 58 77 101 85 70 69 75 82 87 85 76 63 40 20 23 44 45 31 26 27 24 46 92 99
308 309 310 311 312 312 309 307 307 301 301 318 334 333 329 205 225 263 284 311 327 318 309 303 295 295 301 302 302 307 306 278 282 302 317 318 307 308 314 301 301 319 320 323 355 2 0 13 19 34 40 7 333 328 41 67 79 68 55 55 65 68 64 64 72 84 82 70 69 78 84 90 96 89 75 57 33 25 35 32 16 16 30 29 47 71 58
309 310 311 311 312 310 304 302 299 292 294 308 319 311 300 214 234 282 293 304 315 315 302 281 277 291 299 287 255 289 312 299 280 292 294 291 293 326 352 353 358 358 350 352 19 23 5 355 351 350 35 20 346 325 44 67 80 78 64 64 70 71 75 80 78 78 83 84 91 99 91 81 85 83 67 48 30 26 33 28 15 17 42 46 50 57 66
311 313 315 315 314 306 299 296 288 282 283 281 268 271 282 287 288 292 298 305 306 298 289 288 284 285 290 256 211 259 286 288 286 273 264 274 288 336 359 353 19 39 6 341 353 26 16 336 311 323 10 9 331 320 48 62 73 83 78 76 74 74 82 88 83 78 77 70 80 103 87 60 44 41 37 30 27 26 25 25 26 32 43 52 61 74 97
314 317 318 315 309 301 294 286 279 272 270 272 278 288 289 283 291 302 309 310 297 274 272 289 290 278 295 313 310 261 253 272 272 249 229 349 1 314 290 332 10 18 352 338 349 58 9 296 292 324 33 9 331 0 62 68 79 85 81 74 74 80 88 89 83 78 69 60 67 83 75 55 38 24 13 14 24 19 8 10 31 41 48 68 86 94 100
320 319 315 309 303 300 293 280 269 260 260 273 301 316 302 299 310 315 316 311 293 270 257 258 266 280 292 297 294 237 273 299 291 249 176 58 12 303 274 280 43 8 349 339 325 209 173 311 315 313 90 27 1 36 68 74 82 87 87 83 82 89 93 87 79 75 70 70 79 79 68 57 49 35 21 17 18 14 13 27 43 56 65 74 80 87 96
325 318 311 308 305 301 285 264 250 242 252 281 291 284 291 301 305 305 307 305 284 260 247 243 246 270 292 295 309 77 323 311 321 357 13 24 19 339 323 323 73 40 3 325 317 0 69 11 328 322 47 35 25 31 40 52 69 83 94 95 88 82 83 78 73 68 62 61 67 66 57 49 45 41 36 28 18 15 27 38 45 62 78 82 81 87 98
327 318 311 312 316 311 279 262 246 231 237 256 257 262 278 292 294 296 300 293 264 254 278 282 269 275 297 310 5 24 329 294 250 197 331 328 22 6 329 304 46 56 355 312 345 49 52 357 332 23 48 43 33 27 21 29 50 76 97 98 82 69 78 83 84 76 62 49 56 68 65 60 55 46 38 36 29 22 30 41 48 64 81 86 86 89 99
332 324 319 328 338 289 284 281 241 225 241 254 260 269 282 289 290 289 285 271 247 237 254 277 281 280 288 302 340 352 339 318 274 197 67 27 2 349 331 328 11 57 295 332 51 46 10 302 314 54 61 57 53 47 32 27 55 79 98 100 81 75 81 79 79 78 61 21 13 35 42 69 87 73 51 42 37 31 35 41 47 66 83 89 92 102 114
355 354 348 347 317 281 286 288 219 223 251 271 279 283 282 280 277 254 232 234 229 223 229 241 264 272 278 293 331 348 351 334 307 317 58 40 344 327 339 356 16 304 278 95 83 4 298 264 179 97 89 89 78 67 53 44 64 84 103 109 98 106 85 59 40 29 30 28 28 25 23 36 72 78 63 45 33 34 42 43 46 67 82 91 107 121 125
16 352 328 314 293 275 300 307 268 252 270 285 287 281 264 248 247 234 210 197 201 214 218 225 249 266 279 300 331 352 356 325 309 325 47 50 16 354 334 349 56 294 286 100 98 312 286 261 120 96 93 93 83 76 73 74 84 95 109 107 105 132 101 62 44 33 34 36 31 27 20 17 26 47 59 54 40 40 49 52 56 69 75 83 104 117 123
349 330 314 301 286 264 268 280 279 286 296 282 256 249 247 236 234 232 206 194 210 216 206 220 244 254 273 301 307 355 37 332 320 333 12 41 35 346 320 354 37 308 305 64 69 304 294 337 44 59 60 54 64 85 101 104 103 107 115 112 111 135 126 77 58 47 43 34 25 27 24 15 15 33 52 52 44 45 55 62 67 68 68 82 101 116 131
330 323 314 293 279 265 261 270 278 291 289 265 238 238 246 236 240 248 238 231 235 210 198 224 252 241 225 271 287 311 55 15 335 316 320 20 35 314 308 35 33 298 350 61 35 281 295 14 19 34 52 45 51 92 115 114 110 112 115 115 115 123 131 109 76 58 47 29 26 33 31 24 29 42 50 52 54 58 66 72 78 83 87 96 110 124 138
331 348 336 306 286 280 290 289 262 242 251 249 234 244 244 226 231 239 232 244 277 240 188 208 256 276 266 283 289 303 11 23 332 279 281 24 35 308 312 75 214 288 23 59 272 266 22 35 13 36 61 56 54 102 132 129 124 117 111 110 108 104 113 137 114 53 31 16 34 45 45 45 48 49 55 66 68 69 77 86 91 99 104 106 110 119 129
28 10 350 328 308 298 290 247 215 208 228 233 214 232 242 228 229 230 215 228 262 266 175 180 248 259 239 248 262 265 302 350 299 277 283 56 82 286 301 282 239 7 8 262 255 260 74 59 36 42 50 54 65 124 139 130 124 119 113 110 107 95 94 106 116 50 67 97 78 64 62 67 64 59 70 82 78 78 87 88 77 84 102 103 102 112 121
20 355 328 312 292 254 222 217 206 202 218 227 217 218 219 215 220 224 215 219 235 230 175 206 260 254 220 235 257 249 220 207 245 269 299 346 212 227 266 321 95 76 269 252 231 88 74 76 62 46 36 41 85 129 132 130 131 128 120 112 102 89 85 89 102 125 139 134 115 87 76 80 81 82 93 93 82 82 93 88 67 75 98 103 104 114 122
335 289 256 271 261 212 188 195 209 213 224 232 223 221 226 229 224 223 263 293 284 252 187 242 263 265 254 246 252 253 231 203 195 207 249 268 245 262 11 12 324 281 286 281 92 63 44 63 57 36 23 30 94 128 129 132 135 129 122 121 115 94 80 82 101 125 137 133 119 97 85 88 94 98 100 95 85 86 96 95 86 89 102 108 112 119 125
296 269 258 272 256 220 212 213 205 214 226 227 221 221 231 249 252 249 305 303 291 272 273 296 289 283 273 252 237 245 254 246 225 217 270 251 169 60 12 318 285 297 337 30 66 44 41 56 51 29 21 33 97 125 128 132 132 124 124 136 134 112 100 98 110 132 139 133 120 105 94 89 89 91 93 97 101 102 100 100 102 102 105 111 117 123 128
284 249 249 266 254 225 220 226 233 239 246 254 256 255 261 277 274 258 276 292 288 291 307 294 278 271 271 268 264 264 255 240 210 39 320 270 139 109 294 282 278 311 20 8 19 48 59 56 43 29 26 42 103 129 132 133 129 122 122 128 127 122 115 108 125 145 144 137 130 122 107 96 95 94 95 103 111 106 101 103 106 104 105 110 114 119 126
286 260 247 258 252 229 228 239 247 251 260 274 280 280 280 274 266 262 274 287 284 286 286 277 273 270 258 245 250 267 260 212 149 125 295 305 87 130 240 266 250 211 238 320 25 55 63 52 39 30 25 52 113 127 134 132 126 123 126 130 135 136 133 135 151 151 145 144 146 136 119 108 106 103 103 111 112 104 100 103 103 101 104 108 110 116 129
272 267 257 261 268 268 270 277 278 271 265 266 273 280 274 244 220 225 291 299 286 279 277 278 291 297 271 241 243 261 257 209 155 165 191 182 166 184 215 244 229 203 209 29 47 53 51 50 53 50 45 73 105 123 131 128 126 133 138 139 142 144 140 144 151 149 149 159 153 136 122 116 111 107 114 123 118 106 104 107 105 103 105 106 107 120 137
247 247 249 254 265 277 280 280 278 274 271 274 289 296 291 275 238 54 342 305 295 294 282 258 249 264 272 258 239 240 240 228 212 201 190 187 195 195 193 213 233 262 49 51 53 49 43 46 62 81 85 90 111 129 125 118 122 136 143 143 147 146 143 146 147 145 149 155 146 133 126 123 115 110 115 119 115 111 112 112 109 110 111 111 115 126 132
237 238 243 244 250 267 284 289 284 283 297 318 317 302 291 307 9 9 347 316 295 285 267 239 229 244 258 245 234 236 241 235 230 221 206 195 200 196 189 198 239 8 41 53 59 56 45 40 45 67 93 104 114 122 121 120 130 144 145 144 147 144 144 148 145 137 136 144 144 137 129 121 114 111 112 112 112 113 114 113 112 113 113 114 122 127 125
235 248 263 258 254 258 263 266 269 272 271 274 289 297 306 331 347 336 328 321 301 280 267 253 240 239 248 260 272 289 324 321 255 248 227 190 187 229 209 104 43 33 42 54 64 75 72 56 47 58 88 110 120 124 122 122 135 145 146 146 147 145 145 149 147 140 140 148 148 141 130 124 121 121 120 117 114 111 108 109 113 111 103 105 115 119 120